Location: Unspecified
(48.7670°N, 0.0000°E)
Time: 07:07:49
(UTC+00:00)

S-56A Canister/Altair - Pass Details

Date: 24 October 2019
Orbit: 634 x 2498 km, 38.9° (Epoch: 12 November)

Event Time Altitude Azimuth Distance (km) Brightness Sun altitude
Exits shadow 02:09:24 19° 114° (ESE) 2,489 10.3 -42.2°
Drops below altitude 10° 02:12:02 10° 102° (ESE) 3,304 11.1 -41.9°
Sets 02:15:58 0° 93° (E) 4,620 12.1 -41.4°
